Theta_e
301 299 300 300 300 300 300 300 300 300 301 301 301 302 302 303 304 310 308 306 308 310 312 311 310 310 310 311 315 318 318 322 327 327 327 326 324 324 324 324 323 325 325 324 326
307 306 304 302 300 300 300 300 300 300 301 301 301 302 302 303 307 311 309 309 311 310 307 306 306 310 309 311 314 313 313 318 320 324 323 323 323 323 322 321 322 324 324 323 322
306 307 307 307 306 301 300 301 301 300 301 301 301 302 302 303 312 310 311 310 311 312 312 311 310 310 310 311 311 311 313 317 320 319 319 319 319 319 318 319 322 320 320 320 322
301 304 306 307 308 307 300 301 301 301 301 302 302 302 303 304 315 310 311 312 312 312 311 312 311 309 307 309 310 310 311 312 313 313 313 315 315 315 316 317 317 318 318 319 320
304 302 304 306 307 308 302 301 302 302 302 302 303 304 303 305 313 311 311 311 310 310 310 311 311 309 308 308 309 309 309 311 311 311 312 312 312 313 314 315 316 317 319 319 321
309 309 306 304 306 307 302 302 302 302 302 303 307 305 304 305 311 310 310 309 309 309 310 311 311 311 310 309 309 309 309 309 310 311 311 311 312 313 314 315 316 317 318 318 319
309 309 309 307 305 306 303 303 303 303 303 305 308 303 304 304 311 310 310 309 308 309 310 310 311 311 310 308 309 310 308 307 308 309 310 312 311 312 314 315 316 316 317 317 317
309 309 309 309 305 305 303 303 305 306 307 306 307 304 305 310 310 310 309 309 309 310 309 309 309 310 311 310 308 307 304 305 307 308 310 311 311 313 312 313 313 313 314 315 317
309 309 309 310 306 305 306 310 310 312 312 310 308 310 313 313 311 309 309 309 309 309 309 309 309 310 309 307 306 304 307 308 308 308 308 310 310 311 312 312 312 313 312 313 313
308 309 309 310 306 306 310 310 313 312 311 311 314 312 313 314 312 310 309 309 309 309 310 310 309 305 303 305 307 308 308 308 308 308 309 308 307 308 311 311 311 312 312 312 312
305 306 308 310 307 310 311 311 310 309 310 310 309 312 311 314 311 309 309 309 309 308 306 306 305 307 307 306 307 309 309 309 309 309 309 309 309 309 309 310 310 311 312 312 312
305 309 309 309 308 311 311 312 311 310 309 311 310 310 309 309 311 310 310 309 308 306 306 304 305 305 307 307 307 308 309 310 309 310 310 309 309 310 308 309 310 311 311 312 311
308 310 310 306 310 311 310 310 311 311 309 309 311 310 310 309 310 311 309 309 308 307 306 305 306 307 307 307 310 309 310 310 311 311 309 308 307 309 309 309 310 311 311 311 312
309 311 310 305 311 310 311 311 310 310 308 313 311 311 311 311 310 310 310 310 307 306 305 305 306 307 307 307 309 309 309 311 312 309 307 309 308 307 308 309 308 309 310 311 312
309 309 308 306 311 312 311 310 310 312 312 313 310 310 310 309 309 310 310 309 307 306 305 306 307 307 307 306 309 307 311 311 310 308 308 309 308 307 306 307 307 308 310 311 311
308 310 306 311 311 310 308 309 312 311 316 312 310 310 310 310 309 311 310 309 308 306 306 305 307 306 306 309 310 309 309 307 305 305 308 307 307 307 306 306 307 308 309 311 312
306 307 308 312 310 310 310 312 311 313 313 311 309 309 309 310 310 311 309 307 306 308 307 307 306 309 311 310 307 306 304 306 306 306 308 307 309 308 308 309 308 309 311 312 312
308 307 309 311 311 310 311 309 314 315 311 311 309 309 310 310 310 309 309 308 310 308 306 307 309 310 310 309 309 306 305 306 309 309 307 307 309 308 309 309 311 312 312 312 312
312 312 312 312 311 310 311 310 311 313 311 311 309 311 310 310 310 308 308 308 310 309 309 309 310 309 309 309 308 308 308 306 307 307 305 308 308 309 309 309 311 312 312 312 311
314 314 313 311 311 310 307 312 312 311 310 310 309 309 310 309 310 309 308 309 310 309 307 308 310 309 309 309 308 308 307 309 306 312 312 309 309 310 309 310 308 308 309 310 311
312 313 313 310 309 311 307 309 311 310 310 311 308 308 309 310 308 308 309 308 310 310 308 307 307 309 309 309 308 307 306 307 306 309 311 311 309 307 307 307 307 308 311 311 311
311 309 311 311 307 303 307 309 309 309 310 309 309 309 309 309 308 307 308 308 310 310 310 308 306 310 310 309 308 307 308 307 312 311 309 310 311 307 307 308 307 308 310 310 309
309 311 311 311 302 302 304 307 308 308 310 308 309 308 308 308 309 307 309 309 309 308 309 308 308 309 309 308 308 311 311 311 310 311 311 312 311 308 308 308 309 309 309 309 309
306 304 307 307 304 304 304 306 309 309 308 307 307 308 308 308 307 308 308 308 308 307 310 310 307 309 310 310 309 311 311 310 312 313 312 313 311 311 310 309 308 308 308 309 312
303 301 302 299 301 301 302 305 308 308 307 307 306 307 307 306 306 306 306 306 306 307 308 309 312 311 311 311 311 310 310 311 311 311 313 312 312 311 311 310 309 310 311 310 312
302 302 302 301 301 301 302 305 305 306 305 307 306 305 304 304 305 306 305 305 305 307 309 307 312 312 311 310 310 311 311 310 310 311 312 314 313 311 309 310 309 309 308 309 313
300 301 301 300 299 301 300 304 304 302 304 305 304 304 304 304 305 305 305 305 305 306 307 311 313 313 312 310 309 312 310 312 313 313 314 314 310 309 309 309 308 308 307 308 311
Wind_Speed
18 17 16 15 14 13 12 11 11 11 11 12 12 13 15 17 15 13 7 2 3 4 4 7 7 6 6 6 8 6 1 4 5 4 2 10 5 6 7 10 16 3 12 22 29
18 18 18 18 17 15 14 13 12 12 12 11 12 13 15 16 10 5 4 2 3 2 2 3 2 4 5 5 7 4 4 7 3 0 4 16 9 14 6 13 9 15 20 26 26
18 18 18 18 19 18 16 15 13 12 11 10 11 12 14 12 3 2 5 8 9 7 7 6 4 3 4 3 4 2 4 2 0 1 5 7 22 8 9 11 2 21 31 29 24
20 19 19 18 19 19 17 16 14 11 10 10 10 11 11 5 3 2 4 4 5 5 6 4 3 3 2 2 2 1 3 3 1 5 7 5 16 14 20 19 19 16 27 21 22
23 22 21 20 20 20 18 15 13 10 9 8 9 10 7 3 3 6 4 2 3 4 5 3 3 4 2 1 4 3 1 5 9 8 8 14 14 19 27 23 22 18 15 18 18
24 24 23 22 20 20 17 14 11 9 7 6 7 8 4 3 8 6 2 0 2 4 4 0 1 2 2 2 2 2 3 8 5 11 10 8 13 19 10 6 19 14 12 14 16
24 24 24 22 20 19 15 11 9 8 6 6 8 6 7 7 6 6 4 4 5 1 3 1 1 2 1 3 2 4 4 6 6 7 7 12 13 12 25 16 15 20 23 26 24
26 25 24 22 20 17 10 7 7 8 7 7 6 6 5 5 9 6 4 2 2 2 3 5 5 4 0 2 4 3 4 4 5 2 6 7 7 4 13 6 9 9 7 8 10
26 25 24 21 18 13 6 5 5 4 3 5 3 4 2 5 5 6 4 4 3 4 6 6 3 2 3 3 4 5 0 1 7 1 4 2 5 3 19 11 15 13 11 13 15
26 25 23 17 13 7 7 3 6 5 4 1 4 3 2 1 5 6 5 5 5 5 2 3 3 4 3 4 2 3 3 4 4 5 5 9 6 8 18 20 16 15 15 11 13
28 26 21 12 7 5 7 2 4 2 10 7 8 7 11 5 2 6 3 5 4 2 2 3 4 2 6 6 5 2 3 4 4 4 6 9 10 9 14 16 11 14 13 15 13
31 24 18 7 1 4 6 5 4 6 8 10 13 16 15 12 5 10 8 3 1 1 1 5 2 6 3 3 4 3 2 3 5 6 5 8 18 12 7 7 11 11 13 18 15
28 22 12 3 6 6 9 8 5 7 2 7 2 3 2 11 6 6 6 3 3 2 2 4 4 2 3 1 1 1 3 2 5 5 5 7 12 5 4 5 11 16 16 12 23
24 16 7 3 7 7 4 5 7 6 4 4 2 2 4 2 4 6 13 8 2 6 4 4 3 1 1 3 4 3 4 3 4 6 4 5 9 5 6 11 7 13 11 23 25
18 11 6 5 6 5 4 8 8 2 4 3 1 4 2 4 5 4 8 12 8 5 5 7 2 3 3 5 6 6 1 3 2 4 3 3 3 2 8 10 12 17 30 27 14
13 8 4 6 6 5 8 4 1 4 1 5 3 4 2 5 3 7 4 5 2 5 3 6 3 4 5 2 3 3 2 3 3 2 1 4 6 6 3 4 6 5 13 11 13
12 9 8 5 6 11 5 2 4 4 4 2 2 3 2 3 4 5 4 5 2 2 2 3 1 1 2 2 3 5 5 4 4 2 5 4 0 14 10 19 15 12 16 16 12
8 9 6 6 9 11 4 4 4 3 2 4 2 3 1 3 1 6 3 4 4 3 2 3 3 3 1 3 4 6 7 4 5 3 9 4 7 8 5 7 9 9 12 15 17
4 7 7 7 11 13 2 4 5 1 4 3 6 1 2 3 2 6 3 4 3 1 4 4 4 3 4 4 6 3 4 4 3 2 2 5 6 13 15 13 8 14 17 21 20
2 4 9 11 12 10 4 2 2 1 4 3 4 3 3 4 2 2 3 3 3 5 2 3 3 6 5 1 5 5 5 1 2 4 5 4 10 11 7 6 8 10 15 23 23
5 0 7 11 9 4 3 4 4 5 4 3 3 4 3 3 4 3 4 4 5 1 1 4 4 4 2 5 7 1 2 3 3 4 3 7 9 6 9 10 9 11 22 27 28
4 2 6 10 5 2 1 1 6 3 4 3 2 2 4 4 3 4 6 6 0 4 3 4 4 4 9 14 6 5 5 7 3 4 4 5 19 8 7 9 7 16 24 31 35
9 5 4 6 2 3 6 4 4 3 2 3 3 1 2 2 3 5 4 2 3 1 4 4 1 4 7 3 4 2 3 3 2 2 18 9 17 5 2 8 14 16 27 34 37
6 4 4 6 5 3 4 5 4 5 1 3 3 1 1 2 4 4 2 3 2 2 7 7 5 7 8 8 3 15 17 13 9 7 10 12 24 19 21 17 14 22 27 32 33
7 1 2 4 2 2 1 3 3 4 4 4 2 2 3 3 3 6 4 3 8 16 4 7 7 10 16 15 15 18 21 18 16 19 13 19 17 21 19 18 15 20 23 27 29
6 5 4 5 5 3 2 2 2 4 3 4 2 7 4 4 6 15 7 4 6 3 5 2 3 4 13 15 16 18 22 18 18 17 17 14 15 13 17 21 19 21 23 28 25
7 5 4 4 4 2 3 2 2 4 8 11 5 7 5 9 11 18 23 23 13 6 6 5 3 3 8 3 6 9 10 8 4 4 5 6 19 11 15 14 18 26 31 31 24
Wind_Direction
354 351 347 343 337 330 323 318 316 315 315 315 317 318 319 324 319 314 318 292 221 199 231 250 247 235 214 205 194 163 120 217 239 201 243 297 4 317 300 293 317 306 326 344 347
353 350 346 342 336 330 322 316 313 311 313 314 315 316 323 328 335 54 49 64 149 174 303 298 212 181 166 193 193 167 180 213 215 292 332 306 288 308 319 314 305 325 315 334 342
346 344 343 341 337 330 322 316 313 310 310 311 313 316 325 331 326 42 79 98 100 85 64 52 92 128 162 163 210 169 198 219 117 355 306 277 296 308 302 290 328 318 315 324 333
350 346 342 338 337 332 322 315 312 309 310 311 312 319 324 329 167 79 145 93 65 44 45 46 49 90 80 159 337 299 252 340 323 324 308 275 298 286 267 275 293 299 302 312 314
356 350 345 338 336 333 326 315 311 304 301 306 315 320 323 289 208 140 144 46 25 7 6 17 80 104 93 332 338 169 4 345 312 297 281 283 274 277 274 286 299 302 296 305 307
347 346 343 339 336 334 330 319 310 303 297 297 318 315 304 269 168 169 174 170 327 344 356 34 58 23 120 138 156 317 287 292 264 268 261 249 263 255 275 353 316 305 297 299 309
341 338 336 336 336 336 335 322 309 304 296 293 312 307 273 231 189 190 205 260 286 316 5 332 319 13 57 349 311 267 294 307 245 244 232 227 261 254 276 289 267 278 285 289 290
339 336 333 333 335 338 339 327 311 295 285 284 303 301 257 170 184 207 213 322 174 262 299 310 306 317 123 334 10 38 41 12 288 353 270 186 263 19 18 26 333 345 340 323 290
339 335 335 334 334 342 353 345 331 302 271 265 282 290 272 180 200 192 243 278 298 322 291 262 295 74 42 67 7 3 135 262 313 267 311 175 299 318 325 311 314 311 324 328 328
338 334 333 335 338 3 3 36 59 91 75 345 272 302 89 25 222 217 254 259 296 338 100 112 88 77 42 70 238 284 353 315 264 301 349 302 266 279 310 307 297 299 310 316 323
335 330 329 336 349 47 38 0 349 318 307 246 273 272 296 297 255 238 271 231 290 39 49 32 76 181 222 194 204 225 190 225 261 280 350 304 296 291 287 290 281 291 297 310 318
334 331 330 333 85 65 69 77 34 317 308 295 265 261 260 278 301 243 260 239 133 283 87 22 247 219 225 232 178 172 186 294 288 288 322 287 289 288 240 250 265 283 296 302 310
337 336 336 340 138 107 88 60 17 336 291 303 306 246 232 225 237 268 206 206 173 229 210 154 237 141 215 55 51 275 182 250 256 311 271 319 283 217 224 247 276 282 282 286 307
343 351 8 103 141 139 79 8 332 327 45 309 349 81 167 200 269 282 238 211 191 199 196 233 271 238 330 277 144 312 197 241 291 5 309 74 292 262 210 244 259 266 275 297 293
351 357 10 137 117 113 330 326 313 309 73 311 29 40 21 208 322 305 252 204 214 177 117 245 257 222 246 230 166 225 199 273 249 258 335 218 246 259 330 291 270 262 265 265 245
2 11 47 107 84 356 316 320 127 47 62 338 54 354 2 5 336 318 295 235 214 154 227 240 230 195 214 172 175 72 20 334 38 105 318 236 188 279 215 233 286 277 274 259 287
25 49 93 80 12 345 346 144 45 99 310 356 303 4 52 325 357 7 6 22 196 122 285 326 246 292 124 61 17 77 53 329 328 349 236 176 309 253 279 288 269 266 267 286 293
49 58 71 25 3 357 344 60 85 222 354 315 313 333 121 359 53 336 12 357 13 58 91 176 297 175 154 166 211 218 160 172 260 231 286 242 245 254 238 270 260 241 266 282 289
74 55 36 11 359 353 330 61 177 89 298 286 322 307 163 350 353 9 329 218 188 140 183 175 267 285 256 237 152 171 183 197 233 234 360 229 274 290 261 254 239 253 271 276 291
269 318 12 359 345 345 72 219 206 268 313 257 218 222 231 208 247 28 292 258 166 213 142 205 278 243 277 322 241 165 172 80 12 294 258 250 262 244 296 277 254 271 264 295 309
333 257 1 350 345 25 114 238 278 276 329 257 239 244 228 204 200 213 243 289 198 148 120 158 162 283 6 225 223 226 233 72 180 187 239 296 262 189 231 243 256 265 280 301 305
347 12 344 345 39 33 123 226 301 280 337 315 303 256 205 202 233 227 221 213 242 133 214 189 166 246 232 263 236 200 223 169 200 236 243 275 264 322 287 266 278 286 296 304 307
341 306 340 357 89 334 315 300 269 303 308 323 303 7 24 222 253 215 224 183 138 136 188 194 233 326 319 1 19 124 182 150 287 259 247 248 266 1 307 297 296 280 301 302 301
359 356 353 51 77 90 356 274 290 312 245 306 274 91 359 270 232 275 253 297 272 242 286 176 189 201 232 261 279 285 277 274 248 256 277 237 276 284 289 291 296 287 293 295 296
15 36 353 310 16 360 243 281 288 303 343 315 294 230 54 275 295 244 260 294 300 281 278 163 250 246 258 265 270 266 265 265 246 252 253 280 275 286 295 299 293 296 301 310 305
9 7 341 289 296 289 217 244 276 347 301 285 247 328 299 226 217 278 287 192 234 295 158 176 252 238 275 265 257 271 275 261 255 251 255 275 279 253 278 290 302 304 308 307 308
0 345 328 292 322 337 232 257 244 21 275 247 337 320 273 270 292 278 269 251 233 201 202 197 220 247 266 18 323 274 255 208 187 215 198 250 285 322 307 308 304 303 297 292 290